QPF
0.02 0.02 0.01 0.00 0.01 0.01 0.01 0.01 0.01 0.01 0.02 0.01 0.02 0.06 0.09 0.07 0.05 0.03 0.02 0.02 0.02 0.01 0.01 0.02 0.02 0.02 0.04 0.08 0.12 0.13 0.10 0.07 0.04 0.03 0.03 0.03 0.02 0.02 0.02 0.02 0.03 0.03 0.03 0.03
0.01 0.01 0.01 0.01 0.01 0.01 0.01 0.01 0.01 0.01 0.03 0.03 0.02 0.03 0.06 0.06 0.05 0.03 0.03 0.03 0.02 0.02 0.02 0.03 0.03 0.04 0.04 0.06 0.08 0.09 0.10 0.10 0.07 0.05 0.04 0.03 0.03 0.02 0.02 0.02 0.02 0.03 0.03 0.03
0.00 0.01 0.02 0.01 0.01 0.02 0.02 0.01 0.02 0.03 0.03 0.03 0.03 0.03 0.04 0.07 0.14 0.07 0.04 0.03 0.03 0.02 0.02 0.03 0.04 0.03 0.03 0.03 0.04 0.05 0.06 0.07 0.06 0.06 0.05 0.04 0.04 0.03 0.03 0.03 0.03 0.03 0.04 0.05
0.01 0.01 0.02 0.02 0.01 0.02 0.03 0.03 0.03 0.03 0.03 0.03 0.05 0.04 0.05 0.05 0.10 0.10 0.08 0.06 0.04 0.03 0.02 0.03 0.02 0.02 0.03 0.03 0.03 0.03 0.03 0.03 0.04 0.03 0.05 0.06 0.04 0.03 0.04 0.04 0.04 0.03 0.04 0.05
0.02 0.01 0.02 0.02 0.02 0.01 0.01 0.03 0.02 0.02 0.03 0.06 0.08 0.07 0.06 0.07 0.10 0.05 0.06 0.05 0.03 0.03 0.02 0.02 0.02 0.02 0.02 0.01 0.02 0.02 0.03 0.03 0.05 0.03 0.03 0.03 0.03 0.03 0.03 0.04 0.04 0.04 0.05 0.06
0.03 0.02 0.02 0.02 0.02 0.02 0.02 0.04 0.04 0.03 0.05 0.08 0.07 0.06 0.05 0.06 0.14 0.08 0.05 0.05 0.05 0.05 0.02 0.02 0.02 0.02 0.02 0.02 0.02 0.02 0.03 0.01 0.01 0.02 0.02 0.03 0.03 0.04 0.05 0.05 0.05 0.05 0.05 0.05
0.01 0.01 0.02 0.02 0.02 0.03 0.06 0.05 0.04 0.05 0.07 0.06 0.08 0.08 0.07 0.08 0.14 0.18 0.13 0.10 0.06 0.05 0.03 0.03 0.02 0.02 0.01 0.01 0.01 0.01 0.01 0.00 0.01 0.01 0.02 0.03 0.03 0.04 0.06 0.05 0.05 0.05 0.05 0.05
0.02 0.03 0.04 0.03 0.03 0.04 0.04 0.03 0.03 0.04 0.07 0.06 0.05 0.09 0.13 0.09 0.12 0.17 0.17 0.13 0.09 0.05 0.03 0.02 0.01 0.01 0.01 0.01 0.01 0.01 0.01 0.01 0.01 0.01 0.02 0.02 0.02 0.02 0.04 0.05 0.05 0.05 0.06 0.08
0.03 0.04 0.04 0.03 0.02 0.02 0.02 0.05 0.04 0.04 0.05 0.09 0.06 0.05 0.11 0.11 0.08 0.08 0.08 0.08 0.08 0.06 0.03 0.02 0.01 0.01 0.01 0.00 0.00 0.01 0.01 0.02 0.02 0.01 0.01 0.01 0.01 0.01 0.02 0.03 0.05 0.05 0.06 0.07
0.05 0.05 0.04 0.04 0.04 0.03 0.04 0.05 0.05 0.06 0.09 0.10 0.07 0.06 0.09 0.15 0.14 0.11 0.10 0.08 0.07 0.05 0.03 0.02 0.01 0.01 0.00 0.00 0.00 0.01 0.01 0.01 0.01 0.01 0.01 0.01 0.00 0.00 0.01 0.02 0.03 0.04 0.03 0.03
0.06 0.06 0.06 0.06 0.07 0.05 0.04 0.04 0.04 0.06 0.12 0.14 0.07 0.08 0.09 0.11 0.15 0.15 0.11 0.09 0.07 0.05 0.04 0.02 0.01 0.01 0.01 0.01 0.01 0.01 0.01 0.01 0.01 0.01 0.01 0.01 0.00 0.00 0.01 0.01 0.02 0.03 0.03 0.02
0.08 0.08 0.08 0.11 0.15 0.13 0.06 0.03 0.03 0.07 0.11 0.11 0.09 0.12 0.12 0.15 0.16 0.15 0.12 0.09 0.07 0.06 0.04 0.03 0.02 0.01 0.01 0.02 0.02 0.01 0.01 0.02 0.02 0.02 0.02 0.02 0.01 0.01 0.01 0.01 0.01 0.01 0.02 0.01
0.15 0.13 0.11 0.11 0.12 0.11 0.08 0.06 0.05 0.06 0.10 0.13 0.11 0.12 0.16 0.16 0.13 0.15 0.14 0.10 0.07 0.06 0.05 0.04 0.03 0.03 0.02 0.02 0.03 0.03 0.03 0.03 0.04 0.04 0.03 0.03 0.03 0.01 0.01 0.01 0.01 0.02 0.02 0.02
0.18 0.18 0.17 0.14 0.13 0.13 0.15 0.14 0.08 0.08 0.07 0.09 0.09 0.08 0.09 0.11 0.11 0.11 0.13 0.11 0.08 0.06 0.05 0.05 0.05 0.05 0.05 0.04 0.04 0.03 0.03 0.04 0.04 0.05 0.05 0.04 0.03 0.03 0.03 0.03 0.03 0.03 0.03 0.03
0.10 0.12 0.13 0.12 0.14 0.13 0.12 0.12 0.10 0.13 0.13 0.09 0.07 0.07 0.07 0.07 0.06 0.07 0.09 0.08 0.08 0.07 0.07 0.07 0.06 0.07 0.06 0.05 0.05 0.05 0.05 0.05 0.07 0.08 0.08 0.08 0.06 0.04 0.03 0.03 0.03 0.02 0.02 0.03
0.07 0.10 0.14 0.14 0.14 0.15 0.15 0.13 0.09 0.08 0.08 0.07 0.07 0.06 0.07 0.07 0.06 0.06 0.06 0.08 0.09 0.08 0.08 0.08 0.09 0.09 0.07 0.05 0.04 0.05 0.05 0.05 0.07 0.10 0.12 0.11 0.09 0.08 0.06 0.04 0.03 0.02 0.01 0.01
0.07 0.12 0.12 0.11 0.11 0.09 0.12 0.13 0.10 0.08 0.07 0.06 0.07 0.06 0.05 0.06 0.05 0.06 0.08 0.09 0.08 0.08 0.08 0.06 0.07 0.07 0.05 0.04 0.03 0.03 0.03 0.03 0.05 0.08 0.11 0.10 0.11 0.13 0.11 0.08 0.05 0.03 0.02 0.02
0.05 0.07 0.10 0.10 0.09 0.08 0.10 0.08 0.06 0.06 0.06 0.06 0.08 0.08 0.06 0.05 0.05 0.06 0.07 0.08 0.08 0.07 0.07 0.06 0.05 0.04 0.03 0.02 0.01 0.01 0.01 0.01 0.02 0.03 0.04 0.05 0.05 0.05 0.05 0.07 0.06 0.03 0.02 0.04
0.05 0.04 0.05 0.06 0.05 0.05 0.07 0.06 0.06 0.06 0.05 0.06 0.07 0.06 0.04 0.04 0.04 0.05 0.06 0.07 0.06 0.05 0.04 0.04 0.04 0.03 0.03 0.02 0.02 0.01 0.00 0.01 0.01 0.01 0.01 0.02 0.03 0.03 0.04 0.04 0.03 0.03 0.03 0.04
0.05 0.04 0.04 0.04 0.03 0.04 0.05 0.05 0.04 0.05 0.04 0.05 0.05 0.06 0.04 0.03 0.02 0.03 0.04 0.04 0.04 0.04 0.04 0.05 0.04 0.03 0.02 0.02 0.02 0.00 0.00 0.00 0.00 0.01 0.01 0.01 0.01 0.02 0.02 0.03 0.03 0.03 0.03 0.03
0.05 0.04 0.04 0.05 0.05 0.04 0.03 0.03 0.03 0.03 0.03 0.03 0.03 0.04 0.05 0.05 0.04 0.04 0.05 0.04 0.04 0.05 0.05 0.05 0.04 0.03 0.02 0.03 0.02 0.01 0.00 0.00 0.00 0.01 0.01 0.01 0.01 0.01 0.02 0.03 0.03 0.03 0.04 0.04
0.05 0.04 0.06 0.05 0.05 0.04 0.04 0.03 0.02 0.02 0.02 0.04 0.06 0.06 0.06 0.05 0.05 0.05 0.04 0.04 0.03 0.02 0.03 0.04 0.04 0.05 0.04 0.03 0.03 0.02 0.02 0.01 0.01 0.01 0.01 0.01 0.02 0.02 0.03 0.03 0.03 0.03 0.04 0.04
0.05 0.04 0.06 0.06 0.04 0.04 0.04 0.05 0.04 0.04 0.03 0.03 0.06 0.09 0.10 0.08 0.06 0.04 0.03 0.02 0.01 0.01 0.00 0.00 0.01 0.02 0.03 0.04 0.04 0.04 0.04 0.03 0.03 0.03 0.02 0.02 0.02 0.03 0.03 0.03 0.03 0.03 0.04 0.04
0.03 0.02 0.02 0.04 0.04 0.03 0.04 0.04 0.05 0.05 0.04 0.03 0.03 0.03 0.04 0.05 0.04 0.03 0.03 0.02 0.01 0.00 0.00 0.00 0.00 0.00 0.00 0.01 0.02 0.03 0.04 0.04 0.04 0.04 0.03 0.03 0.03 0.03 0.02 0.02 0.02 0.02 0.03 0.06
0.02 0.02 0.03 0.04 0.05 0.04 0.03 0.02 0.04 0.06 0.07 0.06 0.06 0.04 0.05 0.05 0.04 0.04 0.03 0.02 0.01 0.00 0.00 0.00 0.00 0.00 0.00 0.00 0.00 0.01 0.01 0.03 0.04 0.04 0.03 0.03 0.03 0.02 0.02 0.02 0.03 0.03 0.04 0.05
0.02 0.02 0.03 0.05 0.06 0.05 0.03 0.03 0.03 0.02 0.03 0.03 0.03 0.03 0.03 0.03 0.02 0.02 0.02 0.01 0.00 0.00 0.00 0.00 0.00 0.00 0.00 0.00 0.00 0.00 0.00 0.01 0.02 0.02 0.02 0.03 0.03 0.03 0.02 0.02 0.03 0.03 0.04 0.05
0.02 0.02 0.02 0.03 0.04 0.04 0.03 0.03 0.03 0.02 0.01 0.01 0.02 0.02 0.02 0.02 0.01 0.02 0.01 0.01 0.00 0.00 0.01 0.00 0.00 0.01 0.01 0.01 0.01 0.01 0.02 0.03 0.03 0.03 0.04 0.04 0.04 0.03 0.03 0.04 0.05 0.06 0.06 0.06
MSLP
1006.23 1006.93 1007.69 1008.47 1009.22 1009.85 1010.33 1010.63 1010.74 1010.68 1010.50 1010.25 1010.00 1009.84 1009.81 1009.94 1010.25 1010.71 1011.30 1011.96 1012.64 1013.31 1013.95 1014.53 1015.08 1015.59 1016.10 1016.61 1017.14 1017.67 1018.19 1018.69 1019.14 1019.53 1019.85 1020.09 1020.27 1020.41 1020.53 1020.63 1020.74 1020.86 1020.99 1021.12
1006.39 1007.21 1008.01 1008.74 1009.33 1009.76 1010.00 1010.07 1009.98 1009.78 1009.53 1009.29 1009.12 1009.06 1009.15 1009.40 1009.78 1010.29 1010.87 1011.51 1012.15 1012.79 1013.40 1014.00 1014.58 1015.17 1015.76 1016.36 1016.97 1017.57 1018.14 1018.65 1019.11 1019.49 1019.80 1020.05 1020.25 1020.42 1020.59 1020.76 1020.94 1021.13 1021.31 1021.49
1006.47 1007.42 1008.28 1008.99 1009.49 1009.77 1009.82 1009.69 1009.43 1009.09 1008.76 1008.50 1008.35 1008.35 1008.51 1008.82 1009.26 1009.79 1010.38 1011.00 1011.62 1012.24 1012.86 1013.48 1014.11 1014.76 1015.42 1016.10 1016.77 1017.42 1018.02 1018.55 1019.01 1019.39 1019.70 1019.96 1020.19 1020.41 1020.64 1020.87 1021.12 1021.38 1021.61 1021.82
1006.42 1007.47 1008.38 1009.10 1009.54 1009.71 1009.64 1009.36 1008.97 1008.52 1008.12 1007.81 1007.66 1007.68 1007.87 1008.22 1008.69 1009.24 1009.84 1010.46 1011.09 1011.72 1012.36 1013.01 1013.69 1014.40 1015.12 1015.85 1016.57 1017.24 1017.86 1018.39 1018.85 1019.23 1019.55 1019.83 1020.10 1020.37 1020.66 1020.96 1021.27 1021.57 1021.85 1022.08
1006.17 1007.26 1008.21 1008.91 1009.33 1009.45 1009.30 1008.94 1008.46 1007.94 1007.49 1007.15 1006.99 1007.02 1007.23 1007.60 1008.10 1008.67 1009.30 1009.94 1010.59 1011.26 1011.93 1012.63 1013.35 1014.10 1014.87 1015.63 1016.37 1017.05 1017.67 1018.20 1018.65 1019.03 1019.37 1019.67 1019.98 1020.29 1020.63 1020.98 1021.34 1021.67 1021.97 1022.21
1005.70 1006.77 1007.70 1008.39 1008.79 1008.89 1008.71 1008.33 1007.82 1007.29 1006.82 1006.48 1006.32 1006.36 1006.60 1006.99 1007.52 1008.12 1008.78 1009.46 1010.16 1010.86 1011.59 1012.33 1013.09 1013.87 1014.66 1015.43 1016.17 1016.85 1017.45 1017.97 1018.41 1018.80 1019.14 1019.47 1019.80 1020.16 1020.53 1020.92 1021.30 1021.66 1021.96 1022.20
1005.05 1006.02 1006.89 1007.55 1007.94 1008.04 1007.88 1007.53 1007.06 1006.56 1006.12 1005.81 1005.69 1005.76 1006.02 1006.44 1006.99 1007.63 1008.33 1009.05 1009.79 1010.55 1011.31 1012.09 1012.88 1013.68 1014.47 1015.24 1015.96 1016.62 1017.20 1017.70 1018.14 1018.52 1018.87 1019.22 1019.57 1019.95 1020.34 1020.74 1021.13 1021.49 1021.79 1022.02
1004.29 1005.13 1005.90 1006.51 1006.90 1007.03 1006.93 1006.65 1006.26 1005.84 1005.48 1005.24 1005.16 1005.27 1005.56 1006.01 1006.58 1007.25 1007.97 1008.73 1009.50 1010.29 1011.08 1011.88 1012.69 1013.49 1014.27 1015.02 1015.72 1016.35 1016.91 1017.40 1017.82 1018.21 1018.56 1018.91 1019.28 1019.66 1020.06 1020.45 1020.83 1021.18 1021.46 1021.67
1003.58 1004.26 1004.92 1005.48 1005.86 1006.04 1006.03 1005.86 1005.59 1005.29 1005.03 1004.87 1004.86 1005.00 1005.31 1005.77 1006.35 1007.01 1007.74 1008.50 1009.28 1010.08 1010.88 1011.68 1012.48 1013.27 1014.03 1014.76 1015.43 1016.04 1016.58 1017.05 1017.47 1017.85 1018.21 1018.56 1018.92 1019.30 1019.68 1020.05 1020.41 1020.73 1020.99 1021.20
1003.04 1003.57 1004.13 1004.64 1005.04 1005.29 1005.38 1005.33 1005.20 1005.03 1004.89 1004.81 1004.85 1005.02 1005.33 1005.77 1006.32 1006.95 1007.64 1008.37 1009.13 1009.90 1010.68 1011.46 1012.23 1013.00 1013.74 1014.43 1015.08 1015.67 1016.20 1016.66 1017.08 1017.46 1017.82 1018.16 1018.51 1018.87 1019.22 1019.56 1019.88 1020.17 1020.42 1020.62
1002.81 1003.22 1003.70 1004.18 1004.60 1004.92 1005.12 1005.21 1005.21 1005.17 1005.12 1005.12 1005.19 1005.37 1005.65 1006.03 1006.51 1007.06 1007.68 1008.34 1009.03 1009.74 1010.47 1011.21 1011.94 1012.67 1013.37 1014.04 1014.67 1015.25 1015.77 1016.24 1016.66 1017.04 1017.40 1017.74 1018.07 1018.39 1018.71 1019.01 1019.29 1019.55 1019.77 1019.97
1002.95 1003.28 1003.71 1004.19 1004.64 1005.03 1005.33 1005.53 1005.65 1005.71 1005.74 1005.78 1005.86 1006.00 1006.22 1006.51 1006.89 1007.33 1007.83 1008.39 1008.98 1009.61 1010.26 1010.94 1011.61 1012.29 1012.96 1013.61 1014.22 1014.79 1015.31 1015.79 1016.22 1016.61 1016.96 1017.29 1017.59 1017.89 1018.16 1018.42 1018.66 1018.88 1019.08 1019.27
1003.46 1003.74 1004.15 1004.62 1005.10 1005.55 1005.93 1006.22 1006.42 1006.55 1006.63 1006.68 1006.74 1006.83 1006.96 1007.15 1007.40 1007.71 1008.09 1008.52 1009.00 1009.52 1010.08 1010.68 1011.29 1011.92 1012.54 1013.16 1013.76 1014.32 1014.84 1015.33 1015.76 1016.15 1016.50 1016.82 1017.10 1017.35 1017.58 1017.79 1017.99 1018.17 1018.35 1018.53
1004.26 1004.51 1004.90 1005.37 1005.87 1006.35 1006.78 1007.13 1007.39 1007.56 1007.65 1007.70 1007.71 1007.73 1007.78 1007.85 1007.98 1008.17 1008.41 1008.72 1009.08 1009.50 1009.96 1010.47 1011.01 1011.58 1012.15 1012.74 1013.30 1013.85 1014.37 1014.85 1015.28 1015.67 1016.01 1016.31 1016.56 1016.78 1016.97 1017.14 1017.29 1017.44 1017.59 1017.76
1005.22 1005.46 1005.83 1006.29 1006.79 1007.28 1007.73 1008.10 1008.38 1008.56 1008.66 1008.68 1008.66 1008.62 1008.58 1008.56 1008.59 1008.66 1008.80 1008.99 1009.25 1009.57 1009.94 1010.36 1010.82 1011.32 1011.84 1012.37 1012.89 1013.41 1013.90 1014.37 1014.78 1015.16 1015.48 1015.75 1015.98 1016.16 1016.31 1016.44 1016.55 1016.66 1016.79 1016.94
1006.23 1006.45 1006.80 1007.23 1007.71 1008.19 1008.63 1008.99 1009.27 1009.45 1009.53 1009.54 1009.48 1009.40 1009.31 1009.23 1009.19 1009.19 1009.24 1009.36 1009.53 1009.76 1010.05 1010.38 1010.76 1011.18 1011.62 1012.08 1012.54 1013.00 1013.45 1013.87 1014.26 1014.61 1014.90 1015.14 1015.34 1015.49 1015.60 1015.69 1015.77 1015.85 1015.94 1016.07
1007.22 1007.41 1007.71 1008.10 1008.54 1008.98 1009.39 1009.73 1009.99 1010.15 1010.23 1010.22 1010.16 1010.06 1009.96 1009.86 1009.78 1009.74 1009.75 1009.82 1009.93 1010.09 1010.30 1010.55 1010.84 1011.16 1011.51 1011.88 1012.26 1012.65 1013.02 1013.38 1013.72 1014.02 1014.28 1014.49 1014.65 1014.77 1014.85 1014.91 1014.96 1015.01 1015.08 1015.18
1008.14 1008.29 1008.54 1008.87 1009.25 1009.64 1010.00 1010.31 1010.54 1010.70 1010.77 1010.77 1010.72 1010.64 1010.54 1010.45 1010.38 1010.34 1010.34 1010.37 1010.44 1010.55 1010.69 1010.86 1011.05 1011.27 1011.52 1011.78 1012.06 1012.34 1012.63 1012.91 1013.18 1013.42 1013.63 1013.80 1013.93 1014.02 1014.08 1014.11 1014.14 1014.17 1014.22 1014.29
1009.01 1009.10 1009.29 1009.56 1009.88 1010.21 1010.52 1010.79 1011.00 1011.14 1011.22 1011.23 1011.21 1011.15 1011.09 1011.03 1010.99 1010.97 1010.97 1010.99 1011.04 1011.10 1011.18 1011.26 1011.37 1011.48 1011.61 1011.76 1011.92 1012.10 1012.29 1012.49 1012.67 1012.85 1013.01 1013.14 1013.24 1013.30 1013.34 1013.36 1013.37 1013.39 1013.42 1013.48
1009.86 1009.90 1010.04 1010.24 1010.50 1010.77 1011.03 1011.26 1011.44 1011.57 1011.65 1011.68 1011.68 1011.66 1011.64 1011.62 1011.60 1011.61 1011.62 1011.64 1011.66 1011.68 1011.70 1011.71 1011.72 1011.74 1011.76 1011.80 1011.85 1011.93 1012.02 1012.12 1012.24 1012.36 1012.46 1012.55 1012.62 1012.67 1012.70 1012.71 1012.71 1012.72 1012.74 1012.78
1010.73 1010.73 1010.81 1010.96 1011.16 1011.37 1011.58 1011.77 1011.92 1012.03 1012.10 1012.14 1012.16 1012.16 1012.16 1012.17 1012.18 1012.20 1012.21 1012.22 1012.22 1012.21 1012.17 1012.12 1012.06 1011.99 1011.93 1011.87 1011.83 1011.82 1011.82 1011.86 1011.91 1011.97 1012.03 1012.10 1012.14 1012.18 1012.20 1012.20 1012.20 1012.20 1012.22 1012.25
1011.63 1011.59 1011.63 1011.73 1011.88 1012.04 1012.20 1012.34 1012.45 1012.53 1012.58 1012.61 1012.62 1012.63 1012.64 1012.65 1012.67 1012.69 1012.70 1012.69 1012.67 1012.62 1012.54 1012.44 1012.32 1012.19 1012.06 1011.94 1011.84 1011.76 1011.71 1011.69 1011.69 1011.72 1011.75 1011.79 1011.82 1011.85 1011.86 1011.87 1011.87 1011.87 1011.87 1011.90
1012.53 1012.47 1012.48 1012.54 1012.63 1012.74 1012.84 1012.93 1012.99 1013.03 1013.05 1013.05 1013.04 1013.03 1013.02 1013.02 1013.02 1013.02 1013.01 1012.98 1012.94 1012.86 1012.76 1012.63 1012.48 1012.31 1012.15 1011.99 1011.86 1011.75 1011.67 1011.62 1011.59 1011.60 1011.61 1011.64 1011.66 1011.68 1011.69 1011.70 1011.70 1011.70 1011.70 1011.71
1013.39 1013.31 1013.29 1013.31 1013.35 1013.41 1013.46 1013.49 1013.49 1013.48 1013.45 1013.40 1013.36 1013.31 1013.27 1013.24 1013.21 1013.18 1013.14 1013.09 1013.02 1012.93 1012.81 1012.67 1012.51 1012.34 1012.17 1012.01 1011.87 1011.75 1011.67 1011.61 1011.58 1011.58 1011.58 1011.60 1011.62 1011.64 1011.65 1011.65 1011.65 1011.65 1011.65 1011.65
1014.13 1014.04 1013.99 1013.98 1013.98 1013.98 1013.97 1013.94 1013.89 1013.82 1013.74 1013.65 1013.55 1013.46 1013.38 1013.31 1013.25 1013.19 1013.12 1013.05 1012.96 1012.86 1012.73 1012.59 1012.44 1012.28 1012.13 1011.98 1011.86 1011.76 1011.69 1011.64 1011.61 1011.61 1011.62 1011.63 1011.65 1011.66 1011.67 1011.68 1011.67 1011.67 1011.66 1011.66
1014.73 1014.62 1014.55 1014.50 1014.45 1014.40 1014.34 1014.26 1014.15 1014.04 1013.91 1013.77 1013.64 1013.52 1013.40 1013.30 1013.20 1013.11 1013.02 1012.92 1012.82 1012.70 1012.58 1012.44 1012.30 1012.17 1012.04 1011.92 1011.82 1011.74 1011.69 1011.66 1011.64 1011.65 1011.66 1011.67 1011.69 1011.70 1011.71 1011.71 1011.71 1011.70 1011.69 1011.67
1015.16 1015.04 1014.94 1014.86 1014.77 1014.67 1014.57 1014.44 1014.30 1014.15 1013.99 1013.84 1013.68 1013.53 1013.39 1013.27 1013.15 1013.03 1012.92 1012.80 1012.68 1012.55 1012.42 1012.29 1012.16 1012.04 1011.92 1011.82 1011.75 1011.69 1011.66 1011.64 1011.64 1011.65 1011.66 1011.68 1011.70 1011.71 1011.72 1011.72 1011.72 1011.71 1011.69 1011.67
Thickness
5765 5778 5784 5784 5786 5789 5781 5774 5766 5770 5776 5788 5798 5804 5808 5809 5807 5804 5803 5804 5804 5801 5799 5798 5796 5794 5791 5788 5784 5781 5775 5771 5768 5766 5763 5759 5757 5754 5751 5748 5745 5741 5737 5734
5757 5772 5776 5775 5782 5786 5786 5784 5781 5780 5779 5796 5803 5804 5803 5805 5805 5801 5800 5802 5801 5799 5796 5793 5792 5789 5786 5782 5779 5776 5770 5765 5764 5761 5758 5754 5751 5749 5745 5742 5739 5735 5731 5728
5734 5755 5763 5751 5769 5778 5779 5786 5783 5773 5781 5794 5793 5796 5798 5801 5802 5801 5799 5799 5797 5795 5792 5790 5789 5787 5782 5778 5775 5770 5765 5761 5758 5755 5752 5749 5746 5742 5739 5736 5732 5729 5725 5722
5723 5736 5725 5750 5780 5785 5783 5784 5789 5789 5790 5793 5794 5797 5799 5801 5800 5798 5798 5796 5793 5792 5789 5787 5786 5783 5778 5774 5769 5764 5759 5756 5753 5750 5747 5744 5741 5737 5733 5730 5726 5723 5720 5716
5708 5711 5723 5752 5773 5778 5773 5769 5785 5785 5786 5788 5791 5789 5786 5795 5798 5797 5796 5794 5791 5789 5786 5783 5780 5777 5773 5767 5763 5758 5753 5750 5749 5746 5742 5739 5735 5731 5728 5723 5720 5717 5714 5710
5704 5706 5709 5738 5770 5784 5775 5754 5778 5782 5780 5781 5781 5764 5769 5786 5790 5790 5788 5787 5785 5784 5781 5776 5773 5771 5765 5759 5755 5751 5749 5747 5745 5742 5738 5733 5729 5726 5722 5718 5714 5711 5707 5704
5699 5701 5715 5747 5767 5773 5743 5747 5773 5778 5778 5777 5772 5772 5777 5782 5782 5782 5779 5778 5778 5775 5771 5767 5766 5763 5757 5753 5749 5747 5745 5742 5738 5735 5732 5728 5724 5720 5716 5712 5708 5704 5700 5697
5693 5694 5707 5748 5757 5750 5750 5765 5770 5774 5776 5774 5772 5774 5774 5772 5772 5772 5769 5768 5767 5763 5760 5759 5758 5755 5749 5745 5744 5742 5739 5735 5731 5728 5726 5723 5718 5713 5709 5705 5700 5696 5692 5689
5700 5705 5725 5741 5747 5755 5760 5761 5764 5767 5770 5769 5766 5765 5763 5761 5761 5761 5760 5758 5756 5752 5750 5749 5749 5747 5742 5739 5737 5735 5730 5726 5723 5720 5718 5715 5711 5706 5702 5698 5694 5690 5686 5682
5701 5711 5722 5732 5740 5747 5752 5755 5760 5764 5765 5764 5760 5758 5755 5753 5751 5750 5750 5748 5747 5744 5740 5738 5738 5738 5735 5732 5730 5726 5721 5717 5715 5712 5709 5707 5704 5700 5696 5692 5688 5684 5681 5677
5693 5704 5714 5723 5728 5735 5742 5748 5752 5755 5757 5756 5753 5749 5747 5745 5743 5742 5741 5739 5738 5736 5732 5730 5729 5728 5727 5725 5722 5717 5712 5709 5706 5704 5701 5698 5695 5692 5689 5686 5683 5680 5677 5673
5684 5697 5700 5706 5719 5728 5730 5734 5739 5742 5743 5745 5745 5741 5739 5737 5736 5735 5731 5729 5728 5726 5724 5722 5721 5719 5717 5716 5713 5708 5703 5700 5698 5695 5692 5689 5686 5682 5680 5678 5676 5673 5671 5667
5693 5701 5702 5707 5712 5718 5722 5726 5730 5731 5733 5734 5734 5734 5731 5728 5727 5725 5722 5720 5718 5717 5716 5714 5711 5709 5708 5707 5704 5701 5697 5693 5691 5688 5685 5681 5678 5675 5670 5668 5667 5664 5662 5660
5693 5695 5694 5698 5701 5708 5713 5717 5719 5720 5721 5723 5722 5722 5720 5718 5717 5715 5712 5712 5711 5709 5707 5704 5702 5700 5699 5697 5695 5692 5689 5687 5684 5681 5678 5675 5672 5669 5666 5662 5657 5654 5653 5651
5684 5687 5688 5692 5694 5697 5701 5704 5704 5703 5705 5707 5709 5709 5708 5706 5705 5704 5703 5702 5701 5698 5696 5694 5692 5690 5689 5688 5686 5683 5681 5679 5677 5674 5671 5668 5665 5662 5659 5655 5651 5648 5645 5643
5676 5680 5682 5684 5684 5686 5689 5691 5690 5690 5692 5693 5695 5695 5695 5695 5694 5693 5693 5692 5689 5687 5685 5684 5682 5682 5680 5679 5677 5675 5673 5672 5670 5666 5664 5661 5657 5654 5650 5647 5644 5640 5638 5636
5666 5667 5670 5673 5675 5678 5679 5681 5682 5682 5684 5684 5684 5684 5683 5681 5680 5680 5681 5681 5680 5678 5677 5675 5674 5674 5672 5671 5669 5667 5665 5663 5662 5659 5656 5653 5650 5647 5644 5640 5637 5635 5633 5632
5665 5665 5666 5667 5668 5669 5671 5673 5674 5674 5674 5675 5675 5674 5672 5670 5669 5669 5669 5670 5669 5668 5667 5667 5667 5666 5665 5663 5662 5660 5657 5654 5653 5651 5648 5646 5643 5641 5638 5634 5631 5630 5628 5626
5657 5659 5660 5661 5662 5662 5662 5662 5663 5664 5665 5665 5665 5663 5663 5662 5662 5661 5661 5660 5658 5656 5657 5658 5658 5657 5655 5655 5654 5651 5649 5647 5645 5643 5640 5638 5636 5633 5630 5627 5625 5624 5622 5619
5648 5650 5652 5653 5655 5655 5654 5654 5655 5655 5655 5655 5654 5652 5651 5651 5652 5651 5650 5649 5649 5650 5650 5650 5650 5648 5647 5647 5646 5643 5641 5639 5637 5635 5632 5629 5627 5625 5623 5621 5618 5617 5615 5613
5639 5641 5642 5643 5644 5645 5645 5646 5645 5645 5645 5645 5644 5642 5641 5641 5641 5641 5640 5639 5641 5642 5642 5641 5641 5640 5639 5638 5637 5635 5633 5631 5629 5627 5624 5622 5620 5617 5615 5614 5612 5610 5608 5606
5631 5632 5633 5634 5634 5634 5636 5636 5636 5636 5635 5635 5634 5633 5632 5631 5631 5631 5632 5632 5633 5634 5633 5633 5633 5632 5631 5630 5628 5627 5625 5623 5621 5619 5617 5615 5613 5610 5608 5606 5604 5603 5601 5599
5623 5624 5625 5626 5626 5626 5627 5627 5626 5626 5626 5626 5625 5625 5624 5623 5623 5622 5621 5624 5625 5625 5625 5625 5625 5624 5623 5621 5620 5618 5617 5615 5613 5611 5610 5608 5606 5604 5601 5599 5597 5595 5593 5591
5616 5616 5617 5618 5618 5618 5617 5617 5618 5618 5618 5617 5617 5616 5616 5615 5614 5616 5616 5618 5618 5617 5617 5616 5616 5616 5615 5613 5612 5610 5609 5607 5605 5604 5602 5601 5599 5597 5595 5593 5591 5589 5587 5585
5609 5609 5610 5610 5609 5609 5610 5610 5609 5609 5608 5608 5608 5608 5608 5608 5608 5609 5609 5610 5610 5609 5609 5609 5609 5608 5607 5606 5605 5603 5602 5600 5599 5597 5595 5593 5592 5590 5588 5586 5584 5582 5580 5578
5602 5602 5602 5603 5602 5603 5602 5602 5601 5601 5601 5601 5601 5601 5602 5602 5603 5602 5602 5603 5603 5603 5602 5602 5602 5602 5601 5600 5599 5597 5596 5595 5593 5591 5589 5588 5586 5584 5582 5580 5578 5576 5573 5572
5597 5596 5596 5596 5596 5596 5596 5595 5595 5595 5595 5595 5595 5595 5596 5596 5596 5597 5597 5597 5596 5596 5596 5596 5596 5596 5595 5594 5593 5591 5590 5589 5587 5586 5584 5582 5580 5578 5576 5575 5573 5571 5568 5566